Gassville, AR

8:36 PM CST on February 24, 2017 (GMT -0600)
Baxter County Regional

Weather History for KBPK - October, 2013

Change the Weather History Date:

Monday, October 28, 2013

  Actual Average (KFLP) Record (KFLP)
Temperature  
Mean Temperature 56 °F -  
Max Temperature 68 °F 66 °F 82 °F (1999)
Min Temperature 46 °F 47 °F 28 °F (2008)
Degree Days  
Heating Degree Days 9    
Growing Degree Days 6 (Base 50)    
Moisture  
Dew Point 49 °F    
Average Humidity 85    
Maximum Humidity 100    
Minimum Humidity 52    
Precipitation  
Precipitation 0.00 in - - ()
Sea Level Pressure  
Sea Level Pressure 30.14 in    
Wind  
Wind Speed 1 mph (SE)    
Max Wind Speed 5 mph    
Max Gust Speed -    
Visibility 5 miles    
Events Fog    
Averages and records for this station are not official NWS values.
T = Trace of Precipitation, MM = Missing Value Source: NWS Daily Summary

Daily Weather History Graph

Daily Weather History Graph

Search for Another Location

Airport or City:

Trip Planner

Search our weather history database for the weather conditions in past years. The results will help you decide how hot, cold, wet, or windy it might be!

Date:

Astronomy

Oct. 28, 2013 Rise Set
Actual Time 7:29 AM CDT 6:17 PM CDT
Civil Twilight 7:02 AM CDT 6:43 PM CDT
Nautical Twilight 6:32 AM CDT 7:14 PM CDT
Astronomical Twilight 6:02 AM CDT 7:44 PM CDT
Moon 1:32 AM CDT (10/28) 2:50 PM CDT (10/28)
Length of Visible Light 11h 41m
Length of Day
10h 48m
Waning Crescent, 34% of the Moon is Illuminated
Oct 28
Waning Crescent
Nov 3
New
Nov 9
First Quarter
Nov 17
Full
Nov 25
Last Quarter

Hourly Weather History & Observations

Time (CDT) Temp. Windchill Dew Point Humidity Pressure Visibility Wind Dir Wind Speed Gust Speed Precip Events Conditions
12:53 AM 46.0 °F - 43.0 °F 89% 30.05 in 9.0 mi Calm Calm - N/A   Clear
1:53 AM 46.0 °F - 43.0 °F 89% 30.04 in 6.0 mi Calm Calm - N/A   Clear
2:53 AM 46.0 °F - 43.0 °F 89% 30.05 in 6.0 mi Calm Calm - N/A   Clear
3:26 AM 46.4 °F 45.2 °F 44.6 °F 93% 30.08 in 2.5 mi SSW 3.5 mph - N/A   Partly Cloudy
3:38 AM 46.4 °F - 44.6 °F 93% 30.08 in 1.8 mi Calm Calm - N/A   Mostly Cloudy
3:45 AM 46.4 °F 45.2 °F 44.6 °F 93% 30.08 in 0.5 mi South 3.5 mph - N/A Fog Fog
3:53 AM 46.9 °F - 45.0 °F 93% 30.08 in 0.2 mi SSW 4.6 mph - N/A Fog Fog
4:25 AM 46.4 °F - 46.4 °F 100% 30.09 in 0.5 mi Calm Calm - N/A Fog Fog
4:53 AM 48.9 °F - 48.0 °F 97% 30.09 in 0.5 mi Calm Calm - N/A Fog Fog
5:04 AM 48.2 °F - 46.4 °F 93% 30.10 in 0.2 mi Calm Calm - N/A Fog Fog
5:53 AM 48.0 °F - 46.9 °F 96% 30.12 in 0.2 mi Calm Calm - N/A Fog Fog
6:53 AM 48.9 °F - 48.0 °F 97% 30.14 in 0.2 mi Calm Calm - N/A Fog Fog
7:27 AM 50.0 °F - 48.2 °F 94% 30.15 in 0.5 mi Calm Calm - N/A Fog Fog
7:38 AM 50.0 °F - 48.2 °F 94% 30.15 in 0.8 mi Calm Calm - N/A   Mist
7:48 AM 48.2 °F - 48.2 °F 100% 30.15 in 0.2 mi NE 3.5 mph - N/A Fog Fog
7:49 AM 48.9 °F - 48.0 °F 97% 30.15 in 0.2 mi NE 3.5 mph - N/A Fog Fog
8:53 AM 50.0 °F - 48.0 °F 93% 30.18 in 0.2 mi Calm Calm - N/A Fog Fog
9:53 AM 51.1 °F - 50.0 °F 96% 30.20 in 0.2 mi Calm Calm - N/A Fog Fog
10:53 AM 53.1 °F - 51.1 °F 93% 30.20 in 1.0 mi Calm Calm - N/A   Overcast
11:09 AM 53.6 °F - 51.8 °F 94% 30.20 in 3.0 mi Calm Calm - N/A   Overcast
11:34 AM 55.4 °F - 51.8 °F 88% 30.20 in 4.0 mi Calm Calm - N/A   Overcast
11:53 AM 57.0 °F - 52.0 °F 83% 30.19 in 5.0 mi Calm Calm - N/A   Haze
12:05 PM 60.8 °F - 53.6 °F 77% 30.19 in 6.0 mi Variable 3.5 mph - N/A   Haze
12:17 PM 60.8 °F - 53.6 °F 77% 30.19 in 6.0 mi Variable 3.5 mph - N/A   Haze
12:39 PM 62.6 °F - 53.6 °F 72% 30.18 in 7.0 mi Calm Calm - N/A   Mostly Cloudy
12:53 PM 63.0 °F - 52.0 °F 67% 30.17 in 7.0 mi Calm Calm - N/A   Mostly Cloudy
1:53 PM 66.9 °F - 48.9 °F 52% 30.14 in 10.0 mi SSE 4.6 mph - N/A   Scattered Clouds
2:53 PM 66.9 °F - 50.0 °F 54% 30.13 in 9.0 mi Calm Calm - N/A   Mostly Cloudy
3:53 PM 66.0 °F - 51.1 °F 59% 30.14 in 9.0 mi East 3.5 mph - N/A   Overcast
4:53 PM 66.0 °F - 51.1 °F 59% 30.13 in 10.0 mi SSE 4.6 mph - N/A   Clear
5:53 PM 62.1 °F - 52.0 °F 70% 30.14 in 9.0 mi ESE 4.6 mph - N/A   Clear
6:53 PM 60.1 °F - 52.0 °F 75% 30.14 in 10.0 mi ESE 4.6 mph - N/A   Clear
7:53 PM 57.9 °F - 52.0 °F 81% 30.16 in 10.0 mi Calm Calm - N/A   Clear
8:53 PM 55.9 °F - 51.1 °F 84% 30.17 in 10.0 mi ESE 3.5 mph - N/A   Clear
9:53 PM 55.0 °F - 52.0 °F 89% 30.19 in 9.0 mi SE 3.5 mph - N/A   Clear
10:53 PM 54.0 °F - 51.1 °F 90% 30.19 in 7.0 mi SE 3.5 mph - N/A   Clear
11:53 PM 54.0 °F - 52.0 °F 93% 30.20 in 7.0 mi SE 3.5 mph - N/A   Clear